sampling_time,wmo_synop_id,msc_id,stn_nam,stn_elev,lat,long,stn_typ,date_tm,rpt_typ,result_time,crnt_buoy_lat,crnt_buoy_lat_qa_summary,crnt_buoy_long,crnt_buoy_long_qa_summary,avg_air_temp_pst10mts,avg_air_temp_pst10mts_qa_summary,avg_sea_sfc_temp_pst10mts,avg_sea_sfc_temp_pst10mts_qa_summary,avg_batry_volt_pst10mts,avg_batry_volt_pst10mts_qa_summary,avg_solr_panl_crnt_pst10mts,avg_solr_panl_crnt_pst10mts_qa_summary,avg_wtr_lvl_snsr_volt_pst10mts,avg_wtr_lvl_snsr_volt_pst10mts_qa_summary,avg_wave_hgt_pst20mts,avg_wave_hgt_pst20mts_qa_summary,pk_wave_hgt_pst20mts,pk_wave_hgt_pst20mts_qa_summary,sig_wave_pd_pst20mts,sig_wave_pd_pst20mts_qa_summary,sig_wave_hgt_pst20mts,sig_wave_hgt_pst20mts_qa_summary,avg_max_wave_hgt_pst20mts,avg_max_wave_hgt_pst20mts_qa_summary,avg_max_wave_pd_pst20mts,avg_max_wave_pd_pst20mts_qa_summary,avg_wave_pd_pst20mts,avg_wave_pd_pst20mts_qa_summary,pk_wave_pd_pst20mts,pk_wave_pd_pst20mts_qa_summary,avg_stn_pres_pst10mts,avg_stn_pres_pst10mts_qa_summary,avg_wnd_spd_pst10mts,avg_wnd_spd_pst10mts_qa_summary,avg_wnd_dir_pst10mts,avg_wnd_dir_pst10mts_qa_summary,max_avg_wnd_spd_pst10mts,max_avg_wnd_spd_pst10mts_qa_summary,wnd_snsr_vert_disp,wnd_snsr_vert_disp_qa_summary,pres_tend_amt_pst3hrs,pres_tend_amt_pst3hrs_data_flag,pres_tend_char_pst3hrs,pres_tend_char_pst3hrs_data_flag,avg_mslp_pst10mts,avg_mslp_pst10mts_data_flag,avg_stn_pres_pst10mts_1,avg_stn_pres_pst10mts_1_qa_summary,avg_stn_pres_pst10mts_2,avg_stn_pres_pst10mts_2_qa_summary,avg_wnd_spd_pst10mts_1,avg_wnd_spd_pst10mts_1_qa_summary,avg_wnd_spd_pst10mts_2,avg_wnd_spd_pst10mts_2_qa_summary,avg_wnd_dir_pst10mts_1,avg_wnd_dir_pst10mts_1_qa_summary,avg_wnd_dir_pst10mts_2,avg_wnd_dir_pst10mts_2_qa_summary,max_avg_wnd_spd_pst10mts_1,max_avg_wnd_spd_pst10mts_1_qa_summary,max_avg_wnd_spd_pst10mts_2,max_avg_wnd_spd_pst10mts_2_qa_summary
2022-05-04T00:00:00Z,44488,9302000,EAST CHEDABUCTO BAY,0,45.445,-60.9538,18,2022-05-04T00:00:00.000Z,108,2022-05-04T00:06:21.258Z,45.44513,100,-60.95405,100,3.7,100,3.1,100,12.7,100,0.0,100,1.8,100,0.2,100,0.6,100,8.3,100,0.4,100,0.5,100,9.0,100,5.5,100,10.0,100,1023.2,100,,-10,,-10,,-10,5,100,0.2,1,1,1,1023.2,1,1023.2,100,1023.2,100,,-10,,-10,,-10,,-10,,-10,,-10
2022-05-04T00:10:00Z,44488,9302000,EAST CHEDABUCTO BAY,0,45.445,-60.9538,18,2022-05-04T00:10:00.000Z,110,2022-05-04T00:16:20.685Z,,-1,,-1,4.7,100,4.1,100,12.7,100,0.0,100,1.7,100,,-1,,-1,,-1,,-1,,-1,,-1,,-1,,-1,1023.3,100,,-10,,-10,,-10,5,100,0.2,1,1,1,1023.3,1,1023.3,100,1023.3,100,,-10,,-10,,-10,,-10,,-10,,-10
2022-05-04T00:20:00Z,44488,9302000,EAST CHEDABUCTO BAY,0,45.445,-60.9538,18,2022-05-04T00:20:00.000Z,110,2022-05-04T00:26:26.504Z,45.44513,100,-60.95405,100,3.9,100,3.0,100,12.7,100,0.0,100,1.8,100,,-1,,-1,,-1,,-1,,-1,,-1,,-1,,-1,1023.3,100,,-10,,-10,,-10,5,100,0.1,1,1,1,1023.3,1,1023.3,100,1023.2,100,,-10,,-10,,-10,,-10,,-10,,-10
2022-05-04T00:30:00Z,44488,9302000,EAST CHEDABUCTO BAY,0,45.445,-60.9538,18,2022-05-04T00:30:00.000Z,110,2022-05-04T00:36:24.343Z,45.44513,100,-60.95405,100,4.1,100,3.0,100,12.7,100,0.0,100,1.8,100,,-1,,-1,,-1,,-1,,-1,,-1,,-1,,-1,1023.2,100,,-10,,-10,,-10,5,100,0.0,1,0,1,1023.2,1,1023.2,100,1023.2,100,,-10,,-10,,-10,,-10,,-10,,-10
2022-05-04T00:40:00Z,44488,9302000,EAST CHEDABUCTO BAY,0,45.445,-60.9538,18,2022-05-04T00:40:00.000Z,110,2022-05-04T00:46:25.277Z,45.44513,100,-60.95405,100,4.0,100,3.0,100,12.7,100,0.0,100,1.8,100,,-1,,-1,,-1,,-1,,-1,,-1,,-1,,-1,1023.1,100,,-10,,-10,,-10,5,100,-0.1,1,8,1,1023.1,1,1023.1,100,1023.1,100,,-10,,-10,,-10,,-10,,-10,,-10
2022-05-04T00:50:00Z,44488,9302000,EAST CHEDABUCTO BAY,0,45.445,-60.9538,18,2022-05-04T00:50:00.000Z,110,2022-05-04T00:56:37.904Z,45.44513,100,-60.95407,100,4.0,100,2.9,100,12.7,100,0.0,100,1.8,100,,-1,,-1,,-1,,-1,,-1,,-1,,-1,,-1,1023.2,100,,-10,,-10,,-10,5,100,-0.1,1,8,1,1023.2,1,1023.2,100,1023.2,100,,-10,,-10,,-10,,-10,,-10,,-10
2022-05-04T01:00:00Z,44488,9302000,EAST CHEDABUCTO BAY,0,45.445,-60.9538,18,2022-05-04T01:00:00.000Z,108,2022-05-04T01:06:42.525Z,45.44513,100,-60.95405,100,4.1,100,2.9,100,12.7,100,0.0,100,1.7,100,0.2,100,0.6,100,8.9,100,0.4,100,0.5,100,9.3,100,5.7,100,8.7,100,1023.2,100,,-10,,-10,,-10,5,100,-0.2,1,6,1,1023.2,1,1023.2,100,1023.2,100,,-10,,-10,,-10,,-10,,-10,,-10
2022-05-04T01:10:00Z,44488,9302000,EAST CHEDABUCTO BAY,0,45.445,-60.9538,18,2022-05-04T01:10:00.000Z,110,2022-05-04T01:20:31.003Z,45.44515,100,-60.95405,100,4.1,100,2.9,100,12.7,100,0.0,100,1.8,100,,-1,,-1,,-1,,-1,,-1,,-1,,-1,,-1,1023.2,100,,-10,,-10,,-10,5,100,-0.3,1,6,1,1023.2,1,1023.2,100,1023.2,100,,-10,,-10,,-10,,-10,,-10,,-10
2022-05-04T01:20:00Z,44488,9302000,EAST CHEDABUCTO BAY,0,45.445,-60.9538,18,2022-05-04T01:20:00.000Z,110,2022-05-04T01:26:44.042Z,45.44513,100,-60.95405,100,4.1,100,2.9,100,12.7,100,0.0,100,1.7,100,,-1,,-1,,-1,,-1,,-1,,-1,,-1,,-1,1023.3,100,,-10,,-10,,-10,5,100,-0.2,1,6,1,1023.3,1,1023.3,100,1023.2,100,,-10,,-10,,-10,,-10,,-10,,-10
2022-05-04T01:30:00Z,44488,9302000,EAST CHEDABUCTO BAY,0,45.445,-60.9538,18,2022-05-04T01:30:00.000Z,110,2022-05-04T01:36:48.887Z,45.44513,100,-60.95405,100,3.9,100,3.0,100,12.7,100,0.0,100,1.8,100,,-1,,-1,,-1,,-1,,-1,,-1,,-1,,-1,1023.3,100,,-10,,-10,,-10,5,100,-0.2,1,6,1,1023.3,1,1023.3,100,1023.3,100,,-10,,-10,,-10,,-10,,-10,,-10
2022-05-04T01:40:00Z,44488,9302000,EAST CHEDABUCTO BAY,0,45.445,-60.9538,18,2022-05-04T01:40:00.000Z,110,2022-05-04T01:46:53.065Z,45.44513,100,-60.95403,100,3.7,100,3.0,100,12.6,100,0.0,100,1.7,100,,-1,,-1,,-1,,-1,,-1,,-1,,-1,,-1,1023.3,100,,-10,,-10,,-10,5,100,-0.1,1,5,1,1023.3,1,1023.3,100,1023.3,100,,-10,,-10,,-10,,-10,,-10,,-10
2022-05-04T01:50:00Z,44488,9302000,EAST CHEDABUCTO BAY,0,45.445,-60.9538,18,2022-05-04T01:50:00.000Z,110,2022-05-04T01:56:53.882Z,45.44512,100,-60.95405,100,3.8,100,3.0,100,12.6,100,0.0,100,1.8,100,,-1,,-1,,-1,,-1,,-1,,-1,,-1,,-1,1023.2,100,,-10,,-10,,-10,5,100,-0.1,1,5,1,1023.2,1,1023.2,100,1023.2,100,,-10,,-10,,-10,,-10,,-10,,-10
2022-05-04T02:00:00Z,44488,9302000,EAST CHEDABUCTO BAY,0,45.445,-60.9538,18,2022-05-04T02:00:00.000Z,108,2022-05-04T02:06:55.074Z,45.44512,100,-60.95403,100,3.9,100,3.0,100,12.6,100,0.0,100,1.8,100,0.2,100,0.5,100,8.5,100,0.3,100,0.4,100,9.2,100,5.7,100,8.7,100,1023.2,100,,-10,,-10,,-10,5,100,-0.1,1,4,1,1023.2,1,1023.2,100,1023.2,100,,-10,,-10,,-10,,-10,,-10,,-10
2022-05-04T02:10:00Z,44488,9302000,EAST CHEDABUCTO BAY,0,45.445,-60.9538,18,2022-05-04T02:10:00.000Z,110,2022-05-04T02:20:04.564Z,45.44513,100,-60.95405,100,3.8,100,3.0,100,12.7,100,0.0,100,1.8,100,,-1,,-1,,-1,,-1,,-1,,-1,,-1,,-1,1023.1,100,,-10,,-10,,-10,5,100,-0.2,1,8,1,1023.1,1,1023.1,100,1023.1,100,,-10,,-10,,-10,,-10,,-10,,-10
2022-05-04T02:20:00Z,44488,9302000,EAST CHEDABUCTO BAY,0,45.445,-60.9538,18,2022-05-04T02:20:00.000Z,110,2022-05-04T02:27:09.513Z,45.44512,100,-60.95403,100,3.6,100,3.0,100,12.7,100,0.0,100,1.7,100,,-1,,-1,,-1,,-1,,-1,,-1,,-1,,-1,1022.9,100,,-10,,-10,,-10,5,100,-0.3,1,8,1,1022.9,1,1022.9,100,1022.9,100,,-10,,-10,,-10,,-10,,-10,,-10
2022-05-04T02:30:00Z,44488,9302000,EAST CHEDABUCTO BAY,0,45.445,-60.9538,18,2022-05-04T02:30:00.000Z,110,2022-05-04T02:37:09.182Z,45.44512,100,-60.95401999999999,100,3.9,100,3.0,100,12.6,100,0.0,100,1.7,100,,-1,,-1,,-1,,-1,,-1,,-1,,-1,,-1,1023.0,100,,-10,,-10,,-10,5,100,-0.1,1,8,1,1023.0,1,1023.0,100,1023.0,100,,-10,,-10,,-10,,-10,,-10,,-10
2022-05-04T02:40:00Z,44488,9302000,EAST CHEDABUCTO BAY,0,45.445,-60.9538,18,2022-05-04T02:40:00.000Z,110,2022-05-04T02:46:01.961Z,45.44513,100,-60.95401999999999,100,3.7,100,3.0,100,12.6,100,0.0,100,1.7,100,,-1,,-1,,-1,,-1,,-1,,-1,,-1,,-1,1023.1,100,,-10,,-10,,-10,5,100,-0.1,1,8,1,1023.1,1,1023.1,100,1023.1,100,,-10,,-10,,-10,,-10,,-10,,-10
2022-05-04T02:50:00Z,44488,9302000,EAST CHEDABUCTO BAY,0,45.445,-60.9538,18,2022-05-04T02:50:00.000Z,110,2022-05-04T02:56:02.388Z,45.44512,100,-60.95401999999999,100,4.0,100,3.0,100,12.6,100,0.0,100,1.8,100,,-1,,-1,,-1,,-1,,-1,,-1,,-1,,-1,1023.1,100,,-10,,-10,,-10,5,100,-0.2,1,8,1,1023.1,1,1023.1,100,1023.1,100,,-10,,-10,,-10,,-10,,-10,,-10
2022-05-04T03:00:00Z,44488,9302000,EAST CHEDABUCTO BAY,0,45.445,-60.9538,18,2022-05-04T03:00:00.000Z,108,2022-05-04T03:07:08.967Z,45.4451,100,-60.95399999999999,100,3.7,100,3.0,100,12.6,100,0.0,100,1.7,100,0.2,100,0.7,100,8.9,100,0.4,100,0.5,100,9.4,100,6.1,100,14.3,100,1023.2,100,,-10,,-10,,-10,5,100,0.0,1,4,1,1023.2,1,1023.2,100,1023.2,100,,-10,,-10,,-10,,-10,,-10,,-10
2022-05-04T03:10:00Z,44488,9302000,EAST CHEDABUCTO BAY,0,45.445,-60.9538,18,2022-05-04T03:10:00.000Z,110,2022-05-04T03:19:21.052Z,45.4451,100,-60.95401999999999,100,3.7,100,3.0,100,12.6,100,0.0,100,1.7,100,,-1,,-1,,-1,,-1,,-1,,-1,,-1,,-1,1023.2,100,,-10,,-10,,-10,5,100,-0.1,1,5,1,1023.2,1,1023.2,100,1023.2,100,,-10,,-10,,-10,,-10,,-10,,-10
2022-05-04T03:20:00Z,44488,9302000,EAST CHEDABUCTO BAY,0,45.445,-60.9538,18,2022-05-04T03:20:00.000Z,110,2022-05-04T03:26:20.214Z,45.44513,100,-60.95403,100,3.7,100,3.0,100,12.6,100,0.0,100,1.7,100,,-1,,-1,,-1,,-1,,-1,,-1,,-1,,-1,1023.3,100,,-10,,-10,,-10,5,100,0.1,1,5,1,1023.3,1,1023.3,100,1023.3,100,,-10,,-10,,-10,,-10,,-10,,-10
2022-05-04T03:30:00Z,44488,9302000,EAST CHEDABUCTO BAY,0,45.445,-60.9538,18,2022-05-04T03:30:00.000Z,110,2022-05-04T03:36:25.684Z,45.44515,100,-60.95403,100,3.6,100,3.0,100,12.6,100,0.0,100,1.7,100,,-1,,-1,,-1,,-1,,-1,,-1,,-1,,-1,1023.3,100,,-10,,-10,,-10,5,100,0.1,1,3,1,1023.3,1,1023.3,100,1023.3,100,,-10,,-10,,-10,,-10,,-10,,-10
2022-05-04T03:40:00Z,44488,9302000,EAST CHEDABUCTO BAY,0,45.445,-60.9538,18,2022-05-04T03:40:00.000Z,110,2022-05-04T03:46:24.973Z,45.44513,100,-60.95401999999999,100,3.4,100,3.0,100,12.6,100,0.0,100,1.7,100,,-1,,-1,,-1,,-1,,-1,,-1,,-1,,-1,1023.4,100,,-10,,-10,,-10,5,100,0.2,1,3,1,1023.4,1,1023.4,100,1023.4,100,,-10,,-10,,-10,,-10,,-10,,-10
2022-05-04T03:50:00Z,44488,9302000,EAST CHEDABUCTO BAY,0,45.445,-60.9538,18,2022-05-04T03:50:00.000Z,110,2022-05-04T03:56:29.875Z,45.44512,100,-60.95398,100,3.4,100,3.0,100,12.6,100,0.0,100,1.8,100,,-1,,-1,,-1,,-1,,-1,,-1,,-1,,-1,1023.4,100,,-10,,-10,,-10,5,100,0.2,1,3,1,1023.4,1,1023.4,100,1023.4,100,,-10,,-10,,-10,,-10,,-10,,-10
2022-05-04T04:00:00Z,44488,9302000,EAST CHEDABUCTO BAY,0,45.445,-60.9538,18,2022-05-04T04:00:00.000Z,108,2022-05-04T04:06:32.766Z,45.44512,100,-60.95399999999999,100,3.4,100,2.9,100,12.6,100,0.0,100,1.7,100,0.2,100,0.6,100,8.8,100,0.4,100,0.5,100,9.1,100,6.0,100,8.3,100,1023.4,100,,-10,,-10,,-10,5,100,0.2,1,3,1,1023.4,1,1023.4,100,1023.4,100,,-10,,-10,,-10,,-10,,-10,,-10
2022-05-04T04:10:00Z,44488,9302000,EAST CHEDABUCTO BAY,0,45.445,-60.9538,18,2022-05-04T04:10:00.000Z,110,2022-05-04T04:19:38.099Z,45.44513,100,-60.95399999999999,100,3.3,100,2.9,100,12.6,100,0.0,100,1.8,100,,-1,,-1,,-1,,-1,,-1,,-1,,-1,,-1,1023.3,100,,-10,,-10,,-10,5,100,0.1,1,3,1,1023.3,1,1023.3,100,1023.3,100,,-10,,-10,,-10,,-10,,-10,,-10
2022-05-04T04:20:00Z,44488,9302000,EAST CHEDABUCTO BAY,0,45.445,-60.9538,18,2022-05-04T04:20:00.000Z,110,2022-05-04T04:26:34.351Z,45.44512,100,-60.95399999999999,100,3.4,100,2.9,100,12.6,100,0.0,100,1.7,100,,-1,,-1,,-1,,-1,,-1,,-1,,-1,,-1,1023.2,100,,-10,,-10,,-10,5,100,-0.1,1,6,1,1023.2,1,1023.2,100,1023.2,100,,-10,,-10,,-10,,-10,,-10,,-10
2022-05-04T04:30:00Z,44488,9302000,EAST CHEDABUCTO BAY,0,45.445,-60.9538,18,2022-05-04T04:30:00.000Z,110,2022-05-04T04:36:36.046Z,45.44512,100,-60.95399999999999,100,3.3,100,2.9,100,12.6,100,0.0,100,1.7,100,,-1,,-1,,-1,,-1,,-1,,-1,,-1,,-1,1023.1,100,,-10,,-10,,-10,5,100,-0.2,1,8,1,1023.1,1,1023.1,100,1023.1,100,,-10,,-10,,-10,,-10,,-10,,-10
2022-05-04T04:40:00Z,44488,9302000,EAST CHEDABUCTO BAY,0,45.445,-60.9538,18,2022-05-04T04:40:00.000Z,110,2022-05-04T04:46:41.784Z,45.44515,100,-60.95401999999999,100,3.3,100,2.9,100,12.6,100,0.0,100,1.7,100,,-1,,-1,,-1,,-1,,-1,,-1,,-1,,-1,1023.0,100,,-10,,-10,,-10,5,100,-0.3,1,8,1,1023.0,1,1023.0,100,1023.0,100,,-10,,-10,,-10,,-10,,-10,,-10
2022-05-04T04:50:00Z,44488,9302000,EAST CHEDABUCTO BAY,0,45.445,-60.9538,18,2022-05-04T04:50:00.000Z,110,2022-05-04T04:56:44.750Z,45.44513,100,-60.95399999999999,100,3.2,100,2.9,100,12.5,100,0.0,100,1.7,100,,-1,,-1,,-1,,-1,,-1,,-1,,-1,,-1,1023.0,100,,-10,,-10,,-10,5,100,-0.2,1,8,1,1023.0,1,1023.0,100,1023.0,100,,-10,,-10,,-10,,-10,,-10,,-10
2022-05-04T05:00:00Z,44488,9302000,EAST CHEDABUCTO BAY,0,45.445,-60.9538,18,2022-05-04T05:00:00.000Z,108,2022-05-04T05:06:57.605Z,45.44513,100,-60.95399999999999,100,3.2,100,2.9,100,12.5,100,0.0,100,1.7,100,0.2,100,0.7,100,8.5,100,0.3,100,0.5,100,8.7,100,6.0,100,9.1,100,1023.0,100,,-10,,-10,,-10,5,100,-0.2,1,8,1,1023.0,1,1023.0,100,1023.0,100,,-10,,-10,,-10,,-10,,-10,,-10
2022-05-04T05:10:00Z,44488,9302000,EAST CHEDABUCTO BAY,0,45.445,-60.9538,18,2022-05-04T05:10:00.000Z,110,2022-05-04T05:19:53.245Z,45.44513,100,-60.95399999999999,100,3.3,100,2.9,100,12.6,100,0.0,100,1.7,100,,-1,,-1,,-1,,-1,,-1,,-1,,-1,,-1,1023.1,100,,-10,,-10,,-10,5,100,0.0,1,0,1,1023.1,1,1023.1,100,1023.0,100,,-10,,-10,,-10,,-10,,-10,,-10
2022-05-04T05:20:00Z,44488,9302000,EAST CHEDABUCTO BAY,0,45.445,-60.9538,18,2022-05-04T05:20:00.000Z,110,2022-05-04T05:26:50.427Z,45.4451,100,-60.95401999999999,100,3.2,100,2.9,100,12.6,100,0.0,100,1.7,100,,-1,,-1,,-1,,-1,,-1,,-1,,-1,,-1,1023.2,100,,-10,,-10,,-10,5,100,0.3,1,1,1,1023.2,1,1023.2,100,1023.2,100,,-10,,-10,,-10,,-10,,-10,,-10
2022-05-04T05:30:00Z,44488,9302000,EAST CHEDABUCTO BAY,0,45.445,-60.9538,18,2022-05-04T05:30:00.000Z,110,2022-05-04T05:36:49.408Z,45.44513,100,-60.95399999999999,100,3.2,100,2.9,100,12.6,100,0.0,100,1.7,100,,-1,,-1,,-1,,-1,,-1,,-1,,-1,,-1,1023.2,100,,-10,,-10,,-10,5,100,0.2,1,1,1,1023.2,1,1023.2,100,1023.2,100,,-10,,-10,,-10,,-10,,-10,,-10
2022-05-04T05:40:00Z,44488,9302000,EAST CHEDABUCTO BAY,0,45.445,-60.9538,18,2022-05-04T05:40:00.000Z,110,2022-05-04T05:47:03.010Z,45.4451,100,-60.95401999999999,100,3.2,100,2.9,100,12.5,100,0.0,100,1.7,100,,-1,,-1,,-1,,-1,,-1,,-1,,-1,,-1,1023.1,100,,-10,,-10,,-10,5,100,0.0,1,0,1,1023.1,1,1023.1,100,1023.1,100,,-10,,-10,,-10,,-10,,-10,,-10
2022-05-04T05:50:00Z,44488,9302000,EAST CHEDABUCTO BAY,0,45.445,-60.9538,18,2022-05-04T05:50:00.000Z,110,2022-05-04T05:56:04.614Z,45.44513,100,-60.95401999999999,100,3.1,100,2.9,100,12.5,100,0.0,100,1.8,100,,-1,,-1,,-1,,-1,,-1,,-1,,-1,,-1,1023.1,100,,-10,,-10,,-10,5,100,0.1,1,1,1,1023.1,1,1023.1,100,1023.1,100,,-10,,-10,,-10,,-10,,-10,,-10
2022-05-04T06:00:00Z,44488,9302000,EAST CHEDABUCTO BAY,0,45.445,-60.9538,18,2022-05-04T06:00:00.000Z,108,2022-05-04T06:12:11.136Z,45.44512,100,-60.95405,100,3.0,100,2.9,100,12.5,100,0.0,100,1.7,100,0.2,100,0.5,100,8.7,100,0.3,100,0.4,100,8.8,100,6.5,100,9.1,100,1023.1,100,,-10,,-10,,-10,5,100,-0.2,1,8,1,1023.1,1,1023.1,100,1023.0,100,,-10,,-10,,-10,,-10,,-10,,-10
2022-05-04T06:10:00Z,44488,9302000,EAST CHEDABUCTO BAY,0,45.445,-60.9538,18,2022-05-04T06:10:00.000Z,110,2022-05-04T06:19:11.592Z,45.44512,100,-60.95405,100,3.0,100,2.9,100,12.5,100,0.0,100,1.7,100,,-1,,-1,,-1,,-1,,-1,,-1,,-1,,-1,1023.1,100,,-10,,-10,,-10,5,100,-0.1,1,8,1,1023.1,1,1023.1,100,1023.1,100,,-10,,-10,,-10,,-10,,-10,,-10
2022-05-04T06:20:00Z,44488,9302000,EAST CHEDABUCTO BAY,0,45.445,-60.9538,18,2022-05-04T06:20:00.000Z,110,2022-05-04T06:26:20.807Z,45.44512,100,-60.95405,100,3.0,100,2.9,100,12.5,100,0.0,100,1.7,100,,-1,,-1,,-1,,-1,,-1,,-1,,-1,,-1,1023.0,100,,-10,,-10,,-10,5,100,-0.3,1,8,1,1023.0,1,1023.0,100,1023.0,100,,-10,,-10,,-10,,-10,,-10,,-10
2022-05-04T06:30:00Z,44488,9302000,EAST CHEDABUCTO BAY,0,45.445,-60.9538,18,2022-05-04T06:30:00.000Z,110,2022-05-04T06:36:25.758Z,45.44513,100,-60.95407,100,2.9,100,2.9,100,12.5,100,0.0,100,1.7,100,,-1,,-1,,-1,,-1,,-1,,-1,,-1,,-1,1023.0,100,,-10,,-10,,-10,5,100,-0.3,1,6,1,1023.0,1,1023.0,100,1023.0,100,,-10,,-10,,-10,,-10,,-10,,-10
2022-05-04T06:40:00Z,44488,9302000,EAST CHEDABUCTO BAY,0,45.445,-60.9538,18,2022-05-04T06:40:00.000Z,110,2022-05-04T06:46:28.849Z,45.44512,100,-60.95399999999999,100,3.0,100,2.9,100,12.5,100,0.0,100,1.7,100,,-1,,-1,,-1,,-1,,-1,,-1,,-1,,-1,1023.0,100,,-10,,-10,,-10,5,100,-0.4,1,6,1,1023.0,1,1023.0,100,1023.0,100,,-10,,-10,,-10,,-10,,-10,,-10
2022-05-04T06:50:00Z,44488,9302000,EAST CHEDABUCTO BAY,0,45.445,-60.9538,18,2022-05-04T06:50:00.000Z,110,2022-05-04T06:56:33.826Z,45.44508,100,-60.95398,100,2.9,100,2.9,100,12.5,100,0.0,100,1.7,100,,-1,,-1,,-1,,-1,,-1,,-1,,-1,,-1,1023.0,100,,-10,,-10,,-10,5,100,-0.4,1,6,1,1023.0,1,1023.0,100,1022.9,100,,-10,,-10,,-10,,-10,,-10,,-10
2022-05-04T07:00:00Z,44488,9302000,EAST CHEDABUCTO BAY,0,45.445,-60.9538,18,2022-05-04T07:00:00.000Z,108,2022-05-04T07:06:26.699Z,45.44513,100,-60.95405,100,2.9,100,2.9,100,12.5,100,0.0,100,1.7,100,0.2,100,0.5,100,9.4,100,0.4,100,0.5,100,10.3,100,6.9,100,14.3,100,1022.9,100,,-10,,-10,,-10,5,100,-0.5,1,6,1,1022.9,1,1022.9,100,1022.9,100,,-10,,-10,,-10,,-10,,-10,,-10
2022-05-04T07:10:00Z,44488,9302000,EAST CHEDABUCTO BAY,0,45.445,-60.9538,18,2022-05-04T07:10:00.000Z,110,2022-05-04T07:19:30.785Z,45.44512,100,-60.95403,100,2.9,100,2.9,100,12.5,100,0.0,100,1.7,100,,-1,,-1,,-1,,-1,,-1,,-1,,-1,,-1,1022.8,100,,-10,,-10,,-10,5,100,-0.5,1,7,1,1022.8,1,1022.8,100,1022.8,100,,-10,,-10,,-10,,-10,,-10,,-10
2022-05-04T07:20:00Z,44488,9302000,EAST CHEDABUCTO BAY,0,45.445,-60.9538,18,2022-05-04T07:20:00.000Z,110,2022-05-04T07:26:31.942Z,45.44513,100,-60.95403,100,2.8,100,2.9,100,12.5,100,0.0,100,1.6,100,,-1,,-1,,-1,,-1,,-1,,-1,,-1,,-1,1022.7,100,,-10,,-10,,-10,5,100,-0.5,1,8,1,1022.7,1,1022.7,100,1022.7,100,,-10,,-10,,-10,,-10,,-10,,-10
2022-05-04T07:30:00Z,44488,9302000,EAST CHEDABUCTO BAY,0,45.445,-60.9538,18,2022-05-04T07:30:00.000Z,110,2022-05-04T07:36:33.905Z,45.44512,100,-60.95405,100,2.9,100,2.8,100,12.5,100,0.0,100,1.7,100,,-1,,-1,,-1,,-1,,-1,,-1,,-1,,-1,1022.7,100,,-10,,-10,,-10,5,100,-0.4,1,8,1,1022.7,1,1022.7,100,1022.7,100,,-10,,-10,,-10,,-10,,-10,,-10
2022-05-04T07:40:00Z,44488,9302000,EAST CHEDABUCTO BAY,0,45.445,-60.9538,18,2022-05-04T07:40:00.000Z,110,2022-05-04T07:46:36.074Z,45.44512,100,-60.95403,100,2.8,100,2.8,100,12.5,100,0.0,100,1.7,100,,-1,,-1,,-1,,-1,,-1,,-1,,-1,,-1,1022.6,100,,-10,,-10,,-10,5,100,-0.4,1,8,1,1022.6,1,1022.6,100,1022.6,100,,-10,,-10,,-10,,-10,,-10,,-10
2022-05-04T07:50:00Z,44488,9302000,EAST CHEDABUCTO BAY,0,45.445,-60.9538,18,2022-05-04T07:50:00.000Z,110,2022-05-04T07:56:43.315Z,45.44512,100,-60.95405,100,2.7,100,2.8,100,12.5,100,0.0,100,1.6,100,,-1,,-1,,-1,,-1,,-1,,-1,,-1,,-1,1022.6,100,,-10,,-10,,-10,5,100,-0.5,1,8,1,1022.6,1,1022.6,100,1022.6,100,,-10,,-10,,-10,,-10,,-10,,-10
2022-05-04T08:00:00Z,44488,9302000,EAST CHEDABUCTO BAY,0,45.445,-60.9538,18,2022-05-04T08:00:00.000Z,108,2022-05-04T08:13:45.262Z,45.44512,100,-60.95401999999999,100,2.8,100,2.8,100,12.5,100,0.0,100,1.7,100,0.2,100,0.5,100,8.8,100,0.3,100,0.4,100,8.7,100,6.6,100,8.3,100,1022.6,100,,-10,,-10,,-10,5,100,-0.4,1,8,1,1022.6,1,1022.6,100,1022.6,100,,-10,,-10,,-10,,-10,,-10,,-10
2022-05-04T08:10:00Z,44488,9302000,EAST CHEDABUCTO BAY,0,45.445,-60.9538,18,2022-05-04T08:10:00.000Z,110,2022-05-04T08:19:48.556Z,45.44512,100,-60.95407,100,2.8,100,2.8,100,12.5,100,0.0,100,1.7,100,,-1,,-1,,-1,,-1,,-1,,-1,,-1,,-1,1022.6,100,,-10,,-10,,-10,5,100,-0.4,1,8,1,1022.6,1,1022.6,100,1022.6,100,,-10,,-10,,-10,,-10,,-10,,-10
2022-05-04T08:20:00Z,44488,9302000,EAST CHEDABUCTO BAY,0,45.445,-60.9538,18,2022-05-04T08:20:00.000Z,110,2022-05-04T08:26:45.576Z,45.44512,100,-60.954069999999994,100,2.7,100,2.8,100,12.5,100,0.0,100,1.7,100,,-1,,-1,,-1,,-1,,-1,,-1,,-1,,-1,1022.7,100,,-10,,-10,,-10,5,100,-0.5,1,6,1,1022.7,1,1022.7,100,1022.7,100,,-10,,-10,,-10,,-10,,-10,,-10
2022-05-04T08:30:00Z,44488,9302000,EAST CHEDABUCTO BAY,0,45.445,-60.9538,18,2022-05-04T08:30:00.000Z,110,2022-05-04T08:36:47.513Z,45.4451,100,-60.95401999999999,100,2.6,100,2.8,100,12.5,100,0.0,100,1.7,100,,-1,,-1,,-1,,-1,,-1,,-1,,-1,,-1,1022.7,100,,-10,,-10,,-10,5,100,-0.5,1,6,1,1022.7,1,1022.7,100,1022.7,100,,-10,,-10,,-10,,-10,,-10,,-10
2022-05-04T08:40:00Z,44488,9302000,EAST CHEDABUCTO BAY,0,45.445,-60.9538,18,2022-05-04T08:40:00.000Z,110,2022-05-04T08:46:49.371Z,45.44508,100,-60.95401999999999,100,2.6,100,2.8,100,12.5,100,0.0,100,1.7,100,,-1,,-1,,-1,,-1,,-1,,-1,,-1,,-1,1022.8,100,,-10,,-10,,-10,5,100,-0.4,1,5,1,1022.8,1,1022.8,100,1022.8,100,,-10,,-10,,-10,,-10,,-10,,-10
2022-05-04T08:50:00Z,44488,9302000,EAST CHEDABUCTO BAY,0,45.445,-60.9538,18,2022-05-04T08:50:00.000Z,110,2022-05-04T08:56:55.809Z,45.44507,100,-60.95399999999999,100,2.6,100,2.8,100,12.5,100,0.1,100,1.7,100,,-1,,-1,,-1,,-1,,-1,,-1,,-1,,-1,1022.8,100,,-10,,-10,,-10,5,100,-0.4,1,5,1,1022.8,1,1022.8,100,1022.8,100,,-10,,-10,,-10,,-10,,-10,,-10
2022-05-04T09:00:00Z,44488,9302000,EAST CHEDABUCTO BAY,0,45.445,-60.9538,18,2022-05-04T09:00:00.000Z,108,2022-05-04T09:07:01.159Z,45.44508,100,-60.95405,100,2.6,100,2.8,100,12.8,100,0.5,100,1.7,100,0.2,100,0.5,100,8.2,100,0.3,100,0.4,100,8.5,100,6.7,100,8.7,100,1022.7,100,,-10,,-10,,-10,5,100,-0.3,1,5,1,1022.7,1,1022.7,100,1022.7,100,,-10,,-10,,-10,,-10,,-10,,-10
2022-05-04T09:10:00Z,44488,9302000,EAST CHEDABUCTO BAY,0,45.445,-60.9538,18,2022-05-04T09:10:00.000Z,110,2022-05-04T09:20:13.519Z,45.44508,100,-60.95403,100,2.7,100,2.8,100,13.4,100,1.2,100,1.7,100,,-1,,-1,,-1,,-1,,-1,,-1,,-1,,-1,1022.7,100,,-10,,-10,,-10,5,100,-0.4,1,5,1,1022.7,1,1022.7,100,1022.7,100,,-10,,-10,,-10,,-10,,-10,,-10
2022-05-04T09:20:00Z,44488,9302000,EAST CHEDABUCTO BAY,0,45.445,-60.9538,18,2022-05-04T09:20:00.000Z,110,2022-05-04T09:27:12.750Z,45.44508,100,-60.95408000000001,100,2.9,100,2.8,100,13.8,100,1.9,100,1.7,100,,-1,,-1,,-1,,-1,,-1,,-1,,-1,,-1,1022.7,100,,-10,,-10,,-10,5,100,-0.3,1,6,1,1022.7,1,1022.7,100,1022.7,100,,-10,,-10,,-10,,-10,,-10,,-10
2022-05-04T09:30:00Z,44488,9302000,EAST CHEDABUCTO BAY,0,45.445,-60.9538,18,2022-05-04T09:30:00.000Z,110,2022-05-04T09:36:11.434Z,45.4451,100,-60.95401999999999,100,3.1,100,2.8,100,14.0,100,2.0,100,1.6,100,,-1,,-1,,-1,,-1,,-1,,-1,,-1,,-1,1022.7,100,,-10,,-10,,-10,5,100,-0.3,1,6,1,1022.7,1,1022.7,100,1022.7,100,,-10,,-10,,-10,,-10,,-10,,-10
2022-05-04T09:40:00Z,44488,9302000,EAST CHEDABUCTO BAY,0,45.445,-60.9538,18,2022-05-04T09:40:00.000Z,110,2022-05-04T09:47:15.238Z,45.44508,100,-60.95405,100,3.1,100,2.8,100,13.9,100,1.3,100,1.6,100,,-1,,-1,,-1,,-1,,-1,,-1,,-1,,-1,1022.8,100,,-10,,-10,,-10,5,100,-0.2,1,6,1,1022.8,1,1022.8,100,1022.8,100,,-10,,-10,,-10,,-10,,-10,,-10
2022-05-04T09:50:00Z,44488,9302000,EAST CHEDABUCTO BAY,0,45.445,-60.9538,18,2022-05-04T09:50:00.000Z,110,2022-05-04T09:56:19.100Z,45.44508,100,-60.95403,100,3.2,100,2.8,100,13.9,100,1.2,100,1.6,100,,-1,,-1,,-1,,-1,,-1,,-1,,-1,,-1,1022.7,100,,-10,,-10,,-10,5,100,-0.3,1,6,1,1022.7,1,1022.7,100,1022.7,100,,-10,,-10,,-10,,-10,,-10,,-10
2022-05-04T10:00:00Z,44488,9302000,EAST CHEDABUCTO BAY,0,45.445,-60.9538,18,2022-05-04T10:00:00.000Z,108,2022-05-04T10:06:10.617Z,45.44508,100,-60.95405,100,3.1,100,2.8,100,14.0,100,1.1,100,1.6,100,0.2,100,0.4,100,8.7,100,0.3,100,0.4,100,8.7,100,6.7,100,8.3,100,1022.6,100,,-10,,-10,,-10,5,100,-0.3,1,6,1,1022.6,1,1022.6,100,1022.6,100,,-10,,-10,,-10,,-10,,-10,,-10
2022-05-04T10:10:00Z,44488,9302000,EAST CHEDABUCTO BAY,0,45.445,-60.9538,18,2022-05-04T10:10:00.000Z,110,2022-05-04T10:19:22.801Z,45.44512,100,-60.95405,100,3.2,100,2.8,100,14.0,100,1.0,100,1.6,100,,-1,,-1,,-1,,-1,,-1,,-1,,-1,,-1,1022.6,100,,-10,,-10,,-10,5,100,-0.2,1,6,1,1022.6,1,1022.6,100,1022.6,100,,-10,,-10,,-10,,-10,,-10,,-10
2022-05-04T10:20:00Z,44488,9302000,EAST CHEDABUCTO BAY,0,45.445,-60.9538,18,2022-05-04T10:20:00.000Z,110,2022-05-04T10:26:23.431Z,45.4451,100,-60.95405,100,3.1,100,2.9,100,14.0,100,1.0,100,1.7,100,,-1,,-1,,-1,,-1,,-1,,-1,,-1,,-1,1022.7,100,,-10,,-10,,-10,5,100,-0.1,1,6,1,1022.7,1,1022.7,100,1022.7,100,,-10,,-10,,-10,,-10,,-10,,-10
2022-05-04T10:30:00Z,44488,9302000,EAST CHEDABUCTO BAY,0,45.445,-60.9538,18,2022-05-04T10:30:00.000Z,110,2022-05-04T10:36:26.345Z,45.4451,100,-60.95405,100,3.1,100,2.9,100,13.9,100,0.9,100,1.6,100,,-1,,-1,,-1,,-1,,-1,,-1,,-1,,-1,1022.7,100,,-10,,-10,,-10,5,100,0.0,1,0,1,1022.7,1,1022.7,100,1022.7,100,,-10,,-10,,-10,,-10,,-10,,-10